Wind_Speed
46 47 47 47 46 46 47 48 49 48 48 48 49 49 50 50 51 52 53 54 56 57 58 59 61 62 64 66 67 68 70 71 72 73 74 74 74 73 71 71 70 69 69 69 69 69 69 68 67 66 67 67 68 69 70 71 72 72 72 71 69 66 64 63 62 62 65 65 64 65 65 64 65 65 63 61 60 60 60 60 61 62 63 65 67
44 46 47 48 48 48 48 49 50 51 51 51 51 52 52 53 54 55 56 57 58 59 60 62 63 65 66 68 69 70 71 72 72 73 72 72 71 70 69 69 68 67 67 67 67 67 67 66 67 68 69 70 71 72 73 74 74 74 74 72 70 68 66 65 64 63 64 66 67 67 68 68 68 69 68 66 64 62 61 62 63 63 65 66 67
43 44 46 47 47 48 48 48 49 50 51 52 53 53 54 54 55 56 57 59 60 61 62 63 64 66 67 68 69 70 70 70 70 69 69 68 67 67 67 66 66 66 66 66 66 66 66 68 69 70 71 72 73 74 75 76 77 76 75 73 71 70 69 68 67 66 66 67 69 69 70 70 71 71 71 70 69 66 63 62 63 65 66 67 68
44 44 45 46 46 47 48 48 48 49 50 51 53 54 55 56 57 58 59 60 61 62 63 64 64 65 66 67 68 68 68 67 67 66 65 65 65 64 64 64 64 64 65 65 66 67 69 71 72 73 74 75 76 77 78 78 79 77 75 74 72 71 71 71 70 69 68 68 69 70 70 70 70 71 71 71 70 70 67 64 64 65 67 68 69
46 46 47 47 48 49 50 50 51 51 52 53 54 55 57 58 59 61 62 63 63 64 64 65 65 66 66 66 66 66 65 64 64 64 64 63 63 63 63 63 63 64 65 66 68 71 73 74 75 76 77 78 79 80 80 80 79 77 75 73 72 72 72 72 72 71 70 69 68 68 68 67 68 69 70 70 70 71 70 67 65 65 67 69 70
48 49 49 49 50 51 52 53 54 55 56 57 58 59 60 61 62 63 63 64 65 65 65 65 65 65 65 64 64 63 62 62 61 61 61 61 61 61 62 63 65 66 68 70 73 74 75 76 78 79 80 81 82 82 81 80 77 75 74 73 72 72 72 73 73 72 71 69 67 67 67 66 66 67 68 69 69 70 71 70 68 66 66 68 71
50 51 51 51 52 53 54 55 56 57 58 59 60 61 62 63 63 63 64 64 64 64 63 63 63 62 62 61 60 59 59 58 58 59 59 60 61 62 64 66 68 70 72 73 74 75 77 78 80 81 82 83 83 82 80 77 75 74 73 73 73 74 75 74 73 72 70 68 68 67 67 67 67 67 68 69 69 70 70 71 71 70 67 66 70
52 51 51 52 52 53 55 56 57 58 59 60 61 61 62 62 62 62 61 61 61 61 60 60 60 59 58 57 57 56 56 57 57 58 59 61 63 65 68 69 71 72 73 74 76 77 79 81 82 83 83 82 80 78 76 75 74 74 74 75 75 76 75 74 72 71 69 68 68 68 69 69 70 69 69 70 70 70 70 70 71 74 72 67 67
51 51 51 52 52 53 54 55 56 57 58 59 59 59 59 59 59 58 58 57 57 57 57 57 56 55 55 55 55 56 56 57 58 60 61 64 66 68 70 71 72 74 75 76 78 80 82 83 84 83 81 79 77 76 74 74 73 74 75 75 75 74 73 71 70 69 69 69 69 70 71 72 73 73 73 72 72 72 72 71 70 72 74 72 69
49 49 49 50 50 51 51 52 52 53 54 55 55 56 56 56 55 54 54 54 54 54 54 54 54 54 54 55 56 56 57 58 60 61 64 66 69 70 71 73 74 76 78 79 82 84 85 84 83 81 79 77 76 75 74 74 75 75 75 74 72 71 70 70 70 70 70 71 71 71 72 72 73 73 73 73 73 73 73 72 71 71 73 74 74
48 48 48 49 49 48 48 49 49 50 51 52 52 52 52 52 52 52 52 53 53 53 54 54 54 54 55 55 56 57 59 61 62 64 67 69 71 72 74 75 77 79 81 84 85 86 85 83 81 80 78 76 75 75 76 76 77 76 74 72 70 70 69 70 71 72 72 72 71 70 69 68 68 68 68 68 69 70 70 69 69 69 70 72 75
48 48 48 48 48 48 48 48 49 50 51 51 50 50 50 50 51 51 52 53 53 54 54 54 55 55 56 57 59 60 62 63 65 67 71 73 74 75 77 78 81 83 85 86 86 85 83 81 79 78 77 76 76 77 77 77 76 75 73 72 72 72 72 72 73 72 71 69 67 65 63 62 62 61 61 62 64 65 65 65 64 64 66 67 69
50 49 49 48 48 48 48 48 49 50 51 51 50 50 50 51 51 52 53 54 54 54 54 55 56 57 59 60 61 62 64 66 68 71 73 75 76 78 80 82 84 85 86 86 85 83 80 79 77 76 76 77 78 79 78 77 75 75 74 74 74 75 75 75 72 69 66 63 61 59 58 57 56 56 56 57 58 60 61 61 61 59 60 61 62
50 50 49 48 47 47 47 48 49 51 52 52 51 51 52 52 53 54 55 55 55 55 56 57 58 60 61 62 63 64 67 69 72 74 75 76 78 81 83 84 86 86 86 84 82 80 78 76 76 76 77 78 79 79 77 76 75 75 75 76 77 77 75 72 69 66 63 60 58 56 53 52 51 51 52 52 53 55 56 56 58 56 55 55 55
47 46 46 45 44 44 46 47 50 52 54 53 52 53 54 54 54 55 56 57 57 58 59 60 61 62 62 63 65 68 70 72 74 76 77 78 81 82 84 85 86 85 83 81 79 77 76 75 76 77 78 78 78 77 77 76 76 76 77 77 77 75 71 68 65 62 59 57 55 53 50 48 46 45 46 47 48 50 51 51 53 53 52 51 49
45 45 46 47 47 47 47 49 52 54 56 55 55 56 56 56 56 57 58 58 59 59 60 62 63 64 65 67 69 71 72 74 75 77 78 80 82 83 84 85 85 83 81 79 77 75 75 75 76 77 78 77 77 76 76 76 76 77 78 76 74 71 68 65 62 59 55 52 50 49 47 44 42 40 40 42 43 45 46 46 47 47 48 47 44
45 45 47 49 48 47 47 49 52 54 54 55 54 54 55 56 57 57 57 58 59 61 63 65 66 67 68 70 71 72 73 75 76 77 79 80 82 83 84 84 83 80 78 76 75 75 75 76 77 77 77 76 76 76 76 76 77 78 76 73 70 67 64 62 60 57 54 50 47 46 45 42 40 38 37 37 38 40 42 43 42 41 42 43 40
39 38 42 44 43 44 46 48 50 51 51 51 51 52 55 57 56 57 58 61 63 66 67 68 68 69 70 71 71 72 73 75 76 78 79 80 82 83 83 82 80 78 76 75 74 74 75 76 76 76 75 76 76 76 76 77 77 75 73 69 66 63 60 58 57 56 54 51 47 45 45 43 41 38 37 36 35 35 36 38 38 37 37 37 36
38 37 40 42 41 45 48 50 51 52 50 52 54 57 60 60 60 62 64 66 67 68 69 69 70 70 71 71 72 73 74 75 77 78 79 80 82 82 81 80 78 76 74 73 74 75 75 76 75 75 75 75 75 76 77 76 75 71 68 65 61 58 55 53 53 52 52 50 47 45 45 44 42 39 36 34 32 31 32 33 33 33 32 32 32
43 43 45 47 48 51 53 54 56 56 57 59 62 63 64 64 64 65 66 67 68 68 69 69 70 70 71 71 73 74 75 76 77 78 79 81 81 80 79 77 75 73 72 73 74 75 75 74 74 75 75 75 76 76 76 74 70 67 63 60 57 54 52 50 49 49 49 48 47 45 43 41 39 37 35 32 30 28 28 28 29 29 28 27 27
46 47 49 53 55 56 57 59 60 61 62 64 64 64 65 65 65 66 66 67 67 68 68 69 70 70 71 72 74 75 76 77 77 79 80 80 79 79 77 75 73 72 72 72 73 74 74 74 75 75 75 76 76 76 74 70 66 62 59 56 53 50 48 47 46 47 48 48 47 45 43 40 36 34 32 30 27 26 24 24 24 25 24 23 23
48 48 51 54 56 57 58 60 61 62 63 64 64 65 65 65 66 66 66 67 67 68 69 69 70 71 72 74 75 76 76 77 78 79 79 79 78 77 74 72 71 71 72 73 73 73 73 74 75 75 76 76 75 73 70 66 62 59 55 52 50 47 46 45 45 45 46 47 46 44 42 39 36 33 31 28 26 24 22 21 21 21 21 20 20
51 51 51 53 55 56 57 58 60 61 63 64 64 65 65 65 66 66 66 67 68 69 69 70 71 72 73 74 75 75 76 77 78 78 78 77 76 74 71 69 69 71 72 72 72 72 74 75 75 75 75 75 73 70 66 62 59 55 53 50 47 45 44 44 44 44 45 45 44 42 41 39 37 33 30 28 25 23 20 19 18 18 18 18 18
54 54 54 55 56 57 58 59 60 61 62 63 63 64 65 65 65 66 67 68 68 69 69 70 71 73 73 74 74 75 76 77 77 77 77 75 73 70 68 68 69 71 71 71 71 73 74 74 74 75 74 72 69 66 62 58 55 52 50 47 45 44 43 43 43 43 43 43 43 41 39 38 36 33 29 27 25 22 19 18 17 16 16 16 16
55 55 56 57 58 59 60 61 62 63 63 63 64 64 65 66 67 67 68 68 68 69 69 70 72 73 73 73 74 75 76 76 76 76 75 72 68 66 67 68 70 71 70 70 71 73 73 74 74 73 72 69 65 61 57 54 52 49 47 45 44 43 42 42 41 41 40 40 40 40 38 36 34 32 29 26 24 21 19 17 16 15 15 14 14
55 55 57 58 59 60 61 62 63 64 65 65 65 66 66 67 67 67 67 67 68 69 70 71 72 72 72 72 73 74 75 75 75 74 71 67 65 65 67 68 69 69 69 70 71 72 72 72 72 71 69 66 62 59 55 52 49 46 44 43 42 42 41 41 40 39 38 38 37 37 36 34 31 30 27 24 22 20 18 16 15 14 14 13 14
55 56 57 58 59 60 61 62 63 64 65 65 66 66 66 66 66 66 66 67 68 69 70 71 71 71 71 72 72 73 73 74 72 69 65 63 64 65 67 68 68 68 68 69 69 70 70 71 70 69 66 62 59 56 53 50 47 44 42 40 40 40 39 38 38 37 36 36 35 34 34 33 31 29 27 24 21 19 17 15 13 13 13 13 13
56 57 57 58 59 60 61 61 62 62 63 64 64 65 65 65 65 66 66 67 68 69 70 70 70 70 70 70 71 72 72 71 67 64 62 62 64 66 67 67 67 67 67 67 67 68 69 69 68 66 63 59 55 53 50 48 46 44 42 40 38 38 38 37 37 36 35 35 35 34 33 32 32 30 27 24 20 18 16 15 13 12 12 12 13
57 57 58 58 59 59 60 60 61 61 62 63 64 64 64 65 65 65 66 67 67 68 68 68 68 68 69 69 70 70 69 65 62 60 62 63 64 65 65 65 66 66 65 65 65 67 68 68 67 64 60 57 54 51 48 46 45 44 43 41 39 38 38 37 37 36 36 35 35 34 33 31 30 28 26 24 20 17 15 14 12 11 11 12 13
58 59 59 60 61 61 61 61 61 62 62 62 63 63 63 63 64 64 65 65 66 66 66 66 66 67 68 69 69 66 63 60 59 60 62 63 64 64 64 64 64 64 62 63 65 67 67 67 65 62 59 56 53 51 48 45 43 42 42 42 40 38 38 37 36 35 35 34 34 34 33 31 29 27 26 24 21 18 15 14 12 11 10 12 14
55 56 57 59 60 61 60 60 60 60 60 61 61 61 61 62 63 63 63 63 64 64 64 65 65 66 67 66 64 60 57 57 59 61 62 63 63 62 62 63 63 61 60 62 65 66 67 66 64 61 57 55 53 50 48 45 43 41 41 41 40 39 37 37 36 35 35 35 34 32 32 30 29 27 25 23 21 18 16 14 12 11 10 11 14
50 51 52 54 56 56 56 57 57 58 58 59 59 59 59 60 60 60 61 61 62 62 63 64 65 65 64 61 58 56 56 58 60 61 61 61 61 61 61 62 60 59 60 62 64 66 66 66 63 60 56 54 52 50 48 45 43 42 40 40 40 39 38 37 37 36 35 35 34 32 31 30 28 26 25 23 20 18 16 14 13 12 10 11 14
47 48 50 52 52 52 52 53 55 55 56 56 56 57 57 57 58 58 59 60 60 62 63 63 63 61 58 55 54 55 57 58 60 60 60 59 59 60 60 60 58 58 60 62 64 65 66 65 62 59 56 53 51 49 47 45 43 42 41 40 40 39 39 38 37 36 35 34 33 32 30 29 28 26 24 22 20 18 16 14 13 12 11 11 13
48 48 49 51 50 50 51 52 52 53 53 53 54 54 55 56 56 57 58 59 61 61 61 60 58 55 53 53 54 55 57 58 59 59 58 58 58 59 59 58 57 58 60 62 64 65 65 64 62 58 55 52 49 47 46 44 43 42 41 40 39 38 38 38 37 36 35 34 33 31 30 29 28 27 25 23 20 18 16 14 13 13 12 12 13
48 48 49 49 49 49 49 50 50 50 50 51 51 52 54 55 57 58 59 59 59 58 57 54 52 51 51 53 54 55 57 58 58 57 57 56 57 58 58 57 57 58 60 62 64 64 64 63 61 58 55 52 49 46 45 43 42 42 42 41 40 38 38 38 37 36 35 34 33 32 31 29 27 26 25 24 22 19 16 14 13 13 13 13 14
48 48 49 49 48 47 47 47 47 48 49 50 52 53 55 57 58 58 58 57 55 53 51 50 50 50 51 53 54 55 56 56 56 55 55 55 56 57 58 57 57 59 60 62 64 64 64 63 61 57 54 52 48 46 44 42 42 42 41 41 41 39 38 37 37 36 35 34 33 32 31 29 27 25 23 23 22 21 18 15 13 12 12 13 15
49 50 50 50 48 46 46 46 47 48 50 51 53 55 56 57 56 55 53 52 50 49 48 49 49 50 51 53 54 55 55 54 54 54 54 55 56 58 58 58 58 59 61 63 64 64 63 63 61 58 54 51 48 46 43 42 41 40 40 40 40 40 39 38 36 35 35 34 33 32 31 30 28 26 24 22 21 20 19 18 15 13 11 12 14
49 49 49 48 47 47 47 48 49 50 52 53 54 55 54 53 51 50 49 48 47 47 48 48 49 50 51 53 54 54 53 53 53 53 55 56 58 59 59 59 59 60 61 63 64 63 63 63 62 59 55 52 49 46 44 42 40 40 40 39 39 39 39 38 36 35 34 33 32 31 30 29 28 27 25 23 21 20 19 18 18 16 14 12 12
45 47 48 48 48 50 51 53 53 54 54 53 52 51 49 48 47 46 46 46 47 47 48 48 49 51 53 53 53 53 52 52 53 55 56 58 60 61 61 60 60 61 62 63 64 64 63 63 62 60 56 53 50 46 44 42 41 40 39 39 39 38 38 37 37 35 34 33 32 31 30 29 29 28 27 25 23 21 19 18 18 17 16 15 14
46 49 50 51 52 54 55 56 55 53 50 48 46 45 44 44 45 46 46 47 47 48 49 50 52 53 54 53 53 52 52 53 55 58 59 61 62 62 62 61 61 62 63 64 65 65 64 63 63 61 58 55 52 48 46 44 42 41 40 39 39 38 38 37 37 36 35 33 32 31 30 30 29 28 27 26 25 24 22 20 19 18 17 17 17
49 52 54 55 55 55 54 52 49 47 44 43 42 43 43 44 46 47 48 48 49 50 51 52 53 53 53 53 52 53 54 57 59 61 62 63 64 63 62 62 62 63 64 65 66 66 65 64 63 62 59 56 54 50 47 45 43 42 41 40 39 38 37 37 37 37 36 34 33 31 30 30 29 28 28 27 27 26 25 23 22 20 19 18 18
52 54 55 55 54 52 49 46 44 43 43 43 43 44 45 47 48 49 50 51 51 52 52 53 53 53 53 53 54 55 58 60 61 62 63 64 65 64 63 62 62 63 64 65 66 67 67 66 65 63 60 57 54 52 49 46 44 43 42 40 39 38 37 37 37 37 37 35 34 32 31 30 30 29 28 28 27 27 26 26 25 23 22 21 20
53 55 55 54 52 50 48 46 45 44 45 46 47 48 49 51 52 52 53 52 52 52 52 53 54 54 55 55 57 59 61 62 63 64 64 65 65 65 64 63 64 64 65 66 67 69 69 68 67 65 62 58 55 52 49 47 45 44 42 41 40 40 39 37 37 37 37 36 35 34 32 32 31 31 30 29 28 27 27 26 26 26 26 25 24
55 56 56 54 53 52 51 49 49 48 49 50 51 52 53 53 53 52 51 51 51 52 53 55 56 56 57 57 59 61 63 64 65 65 66 66 66 64 64 64 65 66 67 68 69 71 71 70 69 67 64 59 56 53 50 48 46 45 44 42 41 41 40 39 38 37 37 37 36 35 34 33 32 32 32 31 30 29 28 27 26 26 26 27 27
55 54 54 52 50 49 49 49 50 51 52 53 55 56 54 52 50 49 50 51 53 55 57 58 59 59 59 60 60 62 64 66 67 67 68 67 66 65 64 65 66 68 69 70 71 72 73 72 71 69 65 61 58 55 52 49 46 45 44 44 43 42 41 41 40 39 39 38 38 37 36 34 33 33 33 33 33 32 31 31 30 28 27 27 27
51 51 52 51 48 47 47 48 49 52 54 56 57 57 56 55 55 55 56 57 59 60 60 61 62 62 62 62 63 64 66 68 69 69 69 68 66 65 65 66 67 69 71 72 73 74 74 73 72 70 67 63 60 57 55 51 48 45 44 43 43 43 44 43 43 42 41 40 40 39 38 37 36 35 35 34 34 34 34 34 34 33 32 31 30
53 53 53 51 49 48 49 50 52 55 57 58 58 58 59 61 62 62 62 63 63 63 63 64 65 65 65 64 65 67 69 70 71 71 70 68 67 66 66 67 69 71 72 74 75 75 75 74 74 72 69 66 63 60 58 55 52 48 45 42 41 41 43 44 45 45 44 43 43 43 42 41 39 38 37 37 37 36 36 36 36 36 36 36 35
55 54 53 51 50 50 51 52 54 57 60 61 62 63 64 65 66 65 65 65 66 66 66 67 67 67 66 66 67 69 71 72 72 71 70 69 68 68 68 69 71 73 74 76 77 77 77 76 75 73 70 67 65 62 60 58 56 53 49 46 43 41 40 41 43 45 45 46 46 46 46 45 44 42 41 40 40 40 39 39 39 39 39 39 39
54 53 53 53 54 54 54 56 58 60 62 64 65 66 66 66 66 66 67 68 68 68 69 69 69 69 68 69 70 71 72 72 72 71 70 70 70 70 70 72 73 75 77 78 79 79 79 77 75 73 70 68 66 63 61 60 58 56 53 51 48 46 43 42 42 42 43 45 46 48 48 48 48 47 46 45 44 44 43 43 43 43 43 42 42
56 56 57 57 57 57 57 58 60 61 63 64 65 66 67 67 68 68 69 69 70 70 71 71 71 71 71 71 71 72 72 72 73 72 72 72 73 73 74 75 76 78 79 80 80 81 80 78 75 73 71 68 66 63 61 60 59 58 56 54 52 51 49 47 45 44 43 44 45 47 48 49 50 51 50 49 49 48 48 48 47 47 47 47 47
59 58 58 58 58 58 59 60 61 63 64 65 66 67 68 69 70 70 70 71 71 71 72 72 73 73 73 73 72 72 73 74 74 74 74 75 76 77 77 78 79 80 81 81 82 81 80 77 75 73 71 69 67 64 61 60 59 58 57 56 55 54 53 52 52 50 49 48 48 49 50 51 51 52 52 51 51 51 52 52 52 52 52 52 51
Wind_Direction
251 251 252 253 255 256 257 258 259 261 262 263 264 265 266 267 268 270 271 272 274 276 277 279 281 282 284 286 289 290 292 294 295 296 297 298 299 300 300 301 302 302 302 303 303 304 305 306 307 308 309 309 310 310 310 310 310 309 309 308 307 305 303 302 300 298 297 296 294 292 290 288 286 284 282 279 275 271 267 263 259 256 254 252 251
253 252 252 254 255 257 258 259 261 262 263 265 266 267 268 270 271 273 275 276 278 279 281 283 284 287 288 290 292 293 294 295 296 296 297 298 299 300 300 301 302 302 302 302 303 304 306 307 307 308 308 309 309 309 309 309 309 309 308 307 305 304 302 301 299 298 296 294 293 291 289 286 284 283 282 280 277 273 268 264 260 257 254 251 250
256 255 256 257 258 260 262 263 264 265 267 268 270 271 273 274 276 278 279 281 282 284 285 287 289 290 292 293 293 294 294 295 296 297 298 299 299 300 301 301 301 302 302 303 304 305 306 307 307 308 308 308 308 309 309 309 309 309 308 306 305 303 302 301 299 297 295 292 290 287 285 283 281 280 279 278 277 274 270 266 261 257 254 252 249
258 259 259 261 262 264 266 268 270 271 272 273 275 276 278 280 281 282 284 285 287 288 290 291 292 293 293 293 294 295 295 296 297 298 299 299 300 300 301 301 301 302 303 304 305 306 306 307 307 307 308 308 308 309 309 309 309 309 307 305 304 302 301 299 298 296 294 292 290 288 285 283 280 279 277 276 275 274 271 267 263 258 255 252 250
259 261 263 264 266 268 270 272 274 276 277 278 279 280 281 282 283 285 286 288 289 291 292 293 293 294 294 295 295 296 297 298 298 299 299 300 300 301 301 302 303 304 305 305 306 306 307 307 307 308 308 308 309 309 309 309 309 307 306 304 302 300 299 298 298 297 296 294 292 289 287 284 281 278 276 275 273 273 272 269 264 259 256 253 250
260 263 265 268 270 272 274 276 277 279 280 281 282 283 284 285 286 287 288 290 291 292 292 293 294 294 295 295 296 297 297 298 298 299 300 300 301 302 303 304 304 305 305 305 306 307 307 308 308 308 309 309 310 310 309 308 307 305 304 302 302 301 301 301 300 299 297 295 292 290 287 284 281 278 276 274 272 271 271 270 268 263 257 254 252
262 265 268 271 273 275 277 279 280 282 283 284 285 286 287 288 289 290 291 292 293 294 294 295 295 295 296 297 297 297 298 298 299 299 301 302 303 304 305 305 305 305 305 306 306 307 307 308 309 309 309 310 310 309 308 307 306 305 304 304 304 304 304 303 302 300 297 295 293 291 288 285 282 280 277 275 273 271 269 268 269 267 262 256 253
264 267 269 272 275 277 279 281 283 284 285 286 287 288 289 290 291 292 293 294 294 295 295 296 296 297 297 297 298 298 298 299 300 302 303 304 305 305 305 305 305 305 306 306 306 307 308 309 309 309 309 309 309 308 308 307 307 306 306 306 306 305 304 303 301 300 298 296 294 292 290 288 285 282 280 277 274 272 270 268 267 267 266 261 255
265 268 271 274 276 278 280 282 284 285 286 287 288 289 290 291 292 293 293 293 294 294 295 296 296 297 297 297 298 299 300 301 302 303 304 304 305 305 305 305 305 306 306 306 307 308 309 309 310 310 310 309 309 308 308 307 307 307 307 307 306 305 304 302 301 300 298 296 295 293 291 289 287 285 283 280 277 274 272 270 267 265 265 264 260
266 270 273 275 277 280 281 283 285 286 287 288 288 289 290 291 291 292 293 293 294 294 295 296 296 297 298 299 299 300 301 302 302 302 303 304 305 305 305 305 306 306 307 308 309 309 310 311 311 311 311 310 310 309 309 308 308 308 307 307 306 305 304 303 301 300 299 297 296 294 292 290 288 286 284 281 279 276 274 271 269 266 264 263 262
267 271 274 276 278 279 281 283 285 286 286 287 288 289 290 290 291 292 293 294 295 295 296 296 297 298 299 300 300 301 301 301 301 302 304 305 305 305 305 306 307 307 308 310 311 311 312 312 312 312 311 311 310 310 310 310 310 309 309 308 307 306 305 304 303 302 300 299 297 295 293 290 288 286 284 282 280 277 275 272 270 267 264 261 261
268 270 273 275 277 278 280 282 283 285 285 286 287 288 289 289 290 292 293 294 295 295 296 297 298 298 299 299 299 300 300 301 302 303 305 306 306 306 307 307 308 309 311 312 312 313 313 312 312 312 311 311 311 312 312 312 311 311 310 309 309 308 307 305 304 303 302 300 298 296 294 292 289 287 285 282 280 278 276 274 271 268 265 262 259
267 269 271 273 276 277 279 280 282 283 284 284 285 287 288 289 290 291 292 293 294 295 296 296 297 297 298 298 299 300 301 302 303 304 305 306 306 307 308 309 310 311 312 313 313 313 312 312 312 312 312 313 313 313 314 313 313 312 312 311 310 310 309 308 306 305 304 302 300 298 296 294 292 289 286 283 281 279 277 276 274 270 267 264 261
267 269 271 275 277 277 278 280 281 282 283 283 284 285 287 288 290 291 292 293 294 295 295 295 296 297 298 298 299 301 302 303 304 305 306 306 307 308 309 310 312 312 313 313 313 312 312 312 312 313 314 314 315 315 315 314 314 313 313 312 311 311 310 309 309 308 307 305 303 301 299 296 293 291 288 285 282 280 278 277 275 273 269 266 263
268 270 272 273 274 276 278 281 282 282 282 283 284 285 287 288 290 291 292 293 294 294 294 295 297 298 298 299 301 302 303 303 304 305 306 307 308 309 310 311 312 313 313 312 312 312 312 313 314 315 315 316 316 315 315 315 314 314 313 313 313 312 312 311 310 309 308 307 305 303 301 299 296 293 290 288 284 281 279 277 275 275 273 270 265
266 268 269 270 272 275 278 280 280 280 281 283 285 286 287 289 290 291 292 293 293 294 295 296 297 298 299 300 301 302 303 304 305 306 307 308 309 310 311 312 312 312 312 313 313 313 314 314 315 316 316 316 316 316 316 315 315 315 314 314 314 314 313 312 311 310 309 307 307 305 304 302 300 297 294 291 288 284 281 278 276 275 274 272 269
267 270 272 272 273 274 275 277 278 280 283 285 287 288 288 289 290 291 292 293 294 295 296 297 297 298 299 300 301 302 303 304 306 306 307 308 309 310 311 312 312 313 313 313 313 314 315 316 317 317 317 316 316 316 316 316 316 316 316 316 316 316 315 314 313 312 311 311 311 311 310 308 307 304 301 296 291 287 284 281 278 275 274 273 271
265 267 268 270 272 272 271 272 275 280 284 285 286 287 288 289 289 290 291 292 293 294 295 296 296 297 299 300 302 303 304 305 306 307 308 309 310 311 311 312 313 313 313 314 314 315 316 317 317 317 317 317 317 317 317 317 317 317 317 317 317 317 316 316 316 316 316 316 317 317 316 315 314 311 307 302 297 291 286 283 280 277 274 272 270
253 252 255 260 262 263 264 267 272 277 280 281 282 284 285 287 288 289 290 291 292 293 294 295 296 298 299 301 303 304 305 306 307 308 308 309 310 311 312 312 313 313 314 314 315 316 317 318 318 318 317 317 317 317 318 318 318 318 318 318 318 318 318 318 318 319 318 319 320 321 320 318 317 314 310 306 301 295 289 284 281 278 274 270 268
250 248 250 253 254 257 261 266 270 273 275 277 280 282 283 285 287 288 289 290 291 292 293 295 296 298 300 302 304 305 306 307 307 308 309 310 310 311 312 313 313 313 314 315 316 317 318 318 318 318 318 318 318 318 319 319 319 319 319 319 319 319 320 320 320 320 320 320 321 322 321 319 318 316 312 308 304 298 292 287 283 279 275 269 265
252 251 251 254 257 260 264 268 270 272 275 277 279 281 282 284 286 287 288 290 291 292 294 295 297 299 301 303 304 305 306 307 308 309 309 310 311 312 313 313 313 314 315 316 317 318 318 318 318 318 318 319 319 319 319 319 320 320 320 320 320 320 321 321 322 323 322 322 323 323 322 321 321 319 315 312 308 302 296 290 285 280 276 269 262
254 254 255 258 261 264 266 269 271 273 275 277 278 280 281 283 285 286 288 290 291 293 294 296 298 299 301 303 304 305 306 307 308 309 310 310 311 312 313 313 313 314 316 317 318 319 319 319 318 319 319 319 320 320 320 321 321 321 321 321 321 322 323 325 325 325 324 323 323 324 324 324 324 323 320 316 312 307 302 295 288 281 276 268 259
255 256 258 260 262 263 265 268 270 272 274 276 277 279 281 283 285 286 288 290 291 293 294 296 298 300 301 303 304 305 306 307 308 309 310 311 312 312 312 313 314 315 317 318 319 319 319 318 318 319 319 320 321 322 322 323 322 322 322 322 323 325 326 328 327 326 325 324 324 326 327 327 327 326 324 320 316 312 307 300 292 284 276 267 257
256 257 260 261 262 263 265 267 269 271 273 275 276 278 281 283 284 286 287 289 291 292 294 296 298 300 301 303 304 305 306 307 308 309 310 311 311 311 312 313 315 316 317 318 319 319 318 318 319 320 321 322 323 323 323 323 323 323 323 324 326 328 329 329 328 326 325 326 327 329 330 329 327 327 326 323 320 316 311 304 296 288 278 265 255
258 259 260 261 262 264 265 267 268 270 272 274 276 278 280 282 284 285 287 289 290 292 294 296 298 299 301 302 303 304 305 307 308 309 310 310 310 311 313 314 315 317 318 319 319 318 318 319 320 322 323 323 323 323 324 324 324 325 326 327 328 329 329 329 328 327 327 328 329 329 330 330 329 328 327 325 321 317 313 307 300 292 280 265 252
260 261 262 262 263 265 266 268 269 270 272 273 276 278 280 281 283 285 286 288 290 292 294 296 297 299 300 302 303 304 305 306 307 308 309 310 311 313 314 315 316 317 318 319 319 318 319 320 322 323 324 324 324 325 325 326 326 326 327 328 329 330 330 329 329 328 329 329 329 330 331 332 332 330 328 326 323 318 313 308 302 294 282 265 250
261 261 262 263 264 266 267 269 270 271 272 273 275 277 279 280 282 284 285 288 290 292 293 295 297 298 300 301 302 304 305 306 307 308 309 310 312 313 314 315 316 317 318 318 318 319 320 322 324 325 325 325 326 326 327 326 326 326 327 329 330 330 330 329 328 328 328 329 330 331 333 334 335 333 331 329 326 321 315 310 304 294 280 264 248
260 261 262 263 264 266 267 269 270 271 272 273 274 276 277 279 281 283 286 288 290 292 293 295 296 298 299 301 302 303 305 306 307 308 309 311 312 313 314 315 316 317 318 318 319 320 322 324 325 326 326 326 326 327 327 327 327 327 328 330 331 331 330 329 329 329 330 331 332 334 336 339 339 337 333 330 328 323 317 311 306 294 280 264 246
259 260 262 263 265 266 268 269 271 272 273 273 274 276 277 279 282 284 286 288 290 291 293 294 296 298 299 301 302 304 305 306 307 308 309 311 312 313 314 315 316 317 318 319 321 323 324 326 327 327 327 327 327 328 328 329 329 329 330 332 333 332 331 331 331 332 333 334 335 336 338 340 340 338 335 331 329 326 319 312 305 294 279 263 245
260 261 262 264 265 267 269 271 272 273 274 275 275 277 279 281 282 284 286 288 290 291 293 295 297 298 300 301 302 304 305 306 307 308 310 311 312 313 314 315 316 317 319 321 323 325 326 328 329 329 328 328 329 329 330 330 331 332 332 333 334 333 332 332 332 333 333 335 337 338 337 338 340 341 339 334 331 327 321 313 304 293 278 262 247
262 263 265 266 267 268 270 271 273 274 275 276 277 278 280 281 283 285 286 288 290 292 294 295 297 298 300 301 303 304 304 306 307 308 310 311 312 312 313 314 316 319 321 324 325 327 328 330 330 330 330 330 330 330 330 331 333 334 334 333 333 333 333 333 333 334 335 336 337 337 336 337 339 343 343 339 334 328 323 315 304 293 276 260 248
263 265 266 267 268 269 270 272 273 274 275 276 278 279 281 282 284 286 287 289 291 293 294 296 297 299 300 301 302 303 304 306 307 308 309 310 311 312 313 315 318 321 323 326 327 328 330 331 331 331 331 331 331 331 331 332 333 334 335 334 333 333 334 334 334 335 335 335 335 336 337 338 339 342 344 343 338 330 324 317 306 294 279 261 249
264 266 267 268 269 270 271 272 273 274 276 277 279 280 282 284 285 287 288 290 292 293 295 296 298 299 299 300 301 303 305 306 307 308 309 310 310 312 314 317 320 323 325 327 329 330 331 332 333 332 332 331 331 331 331 332 333 334 334 334 333 333 333 333 333 333 333 333 334 336 337 338 338 339 342 344 342 335 327 318 308 295 282 267 252
266 268 268 269 270 271 272 273 274 276 277 279 280 282 283 285 286 287 289 291 292 294 295 296 297 297 298 300 302 304 305 306 306 307 308 309 310 313 316 319 322 324 327 328 329 330 332 333 333 332 331 331 331 331 331 331 332 332 332 332 332 331 331 330 331 331 332 332 334 335 337 339 339 339 339 341 343 341 333 322 312 300 286 272 259
266 268 269 270 271 272 273 274 275 277 278 280 281 282 283 284 286 288 290 291 292 293 294 295 295 297 298 301 303 304 305 305 306 306 307 309 312 316 318 320 323 325 327 329 330 331 332 334 334 333 332 331 331 330 330 330 331 331 330 330 330 330 329 329 329 330 331 332 333 335 336 337 338 338 338 338 339 341 338 329 317 305 292 279 266
266 268 269 271 272 273 273 274 275 276 278 279 281 282 283 285 288 289 290 291 291 292 292 293 295 297 299 302 303 304 304 304 305 306 308 311 315 318 320 322 324 325 327 328 329 330 332 333 334 333 332 331 330 329 329 329 329 329 329 328 328 328 328 328 328 329 330 332 333 333 334 334 335 336 336 336 337 338 338 334 325 311 297 286 275
270 271 271 272 272 272 273 275 277 278 279 280 281 283 285 287 289 289 289 289 289 290 291 293 295 298 301 302 302 302 302 303 305 307 310 314 317 319 320 322 323 325 326 327 329 330 332 334 334 333 332 330 329 328 327 327 327 327 327 327 326 326 327 327 327 328 329 331 331 332 332 332 333 334 334 334 334 334 334 334 330 320 304 290 280
274 275 275 275 275 276 278 280 281 282 282 283 284 285 287 287 287 286 286 286 287 289 291 294 297 299 301 301 301 301 302 304 307 310 313 316 319 320 320 321 323 324 325 326 328 330 331 333 334 333 331 330 328 327 326 325 325 326 326 325 325 325 325 326 326 327 328 329 329 330 330 331 331 332 332 332 331 331 331 331 330 326 317 301 285
272 273 275 275 276 278 280 282 284 285 286 286 286 286 285 284 283 283 283 285 287 289 292 295 297 298 298 299 301 302 304 307 310 313 315 318 319 319 319 320 321 323 323 325 327 329 331 333 333 332 331 330 328 326 325 324 324 324 324 324 324 324 324 324 325 326 326 327 327 328 329 330 330 330 330 330 330 329 328 326 325 324 321 314 302
267 269 272 273 275 277 280 283 285 285 285 284 283 282 281 280 280 281 283 285 287 290 292 294 295 296 298 300 302 304 307 310 313 315 316 317 318 318 318 319 320 321 323 324 326 328 330 332 333 332 331 329 328 326 324 323 322 322 322 322 322 323 323 323 323 324 324 325 326 327 328 329 329 329 328 328 328 327 326 323 321 319 318 317 312
264 266 269 271 274 277 279 281 281 281 280 279 278 278 278 279 280 281 283 285 287 289 291 293 295 298 300 302 305 308 311 313 314 314 314 315 316 316 317 318 319 320 321 323 325 327 328 330 331 331 330 329 328 326 323 321 321 320 320 320 321 321 321 321 321 321 322 323 324 325 327 328 328 328 328 327 326 325 324 322 320 317 315 313 310
260 263 267 270 273 275 276 276 276 276 276 276 276 277 278 279 280 281 283 285 287 288 291 294 297 301 304 307 309 312 312 312 311 312 312 314 314 315 316 316 317 318 320 322 324 326 327 328 330 330 330 328 327 325 322 319 318 318 318 318 318 318 318 319 318 318 319 320 321 322 324 325 326 327 326 326 325 324 323 321 319 317 314 311 308
257 261 265 268 270 271 271 271 271 272 273 274 275 276 277 278 279 281 283 285 287 290 293 297 301 305 308 310 310 310 310 309 310 310 311 312 313 314 314 315 316 317 319 322 324 325 326 327 329 329 328 327 325 324 321 318 316 315 316 316 316 316 315 315 315 315 315 316 318 319 320 322 323 324 324 324 323 322 321 320 318 317 314 312 309
255 260 263 266 269 271 272 273 274 275 276 277 278 278 278 279 280 281 283 286 291 295 298 301 305 307 308 308 307 307 308 309 309 309 310 311 312 312 313 314 315 317 319 321 323 324 325 326 327 327 326 325 323 322 320 317 314 313 313 313 313 313 312 312 312 312 312 312 313 314 316 318 320 320 320 320 320 320 319 318 317 315 314 312 309
256 260 263 267 271 275 277 279 280 281 282 283 284 284 284 284 285 286 288 292 296 299 301 303 305 305 305 304 305 306 307 308 308 309 309 310 310 311 312 313 315 316 318 320 321 322 323 324 324 324 324 323 322 321 319 316 313 311 310 310 311 310 310 310 310 310 310 310 310 310 311 313 314 315 316 316 317 317 317 316 315 314 312 310 308
254 257 260 263 267 270 273 275 277 278 280 282 284 285 287 290 291 293 294 296 298 300 301 302 302 302 302 303 304 305 306 307 308 308 308 308 308 309 311 312 314 316 317 318 319 320 321 322 322 322 322 321 320 319 318 315 312 309 307 307 307 308 308 308 307 307 307 307 307 307 308 309 310 311 311 312 313 314 314 315 314 313 312 311 309
248 251 256 259 262 265 267 268 270 272 274 277 279 281 284 287 290 292 293 295 297 298 298 298 298 299 300 302 303 304 305 305 306 306 306 306 307 308 310 312 313 314 315 316 317 318 319 320 321 320 320 319 319 318 317 314 311 308 306 305 304 304 304 304 305 305 305 305 305 305 306 306 306 307 308 308 309 310 311 312 312 312 311 311 309
248 251 255 258 260 262 263 264 266 268 271 274 276 277 280 282 285 288 289 291 293 294 295 296 296 298 299 301 302 303 303 304 304 304 304 305 306 308 310 311 312 313 314 315 316 317 318 318 318 318 318 318 318 317 316 313 310 307 305 304 303 301 300 300 300 301 302 303 303 303 304 304 305 305 305 306 306 307 308 308 309 308 308 308 307
249 251 253 255 256 258 260 261 263 266 268 271 274 276 278 281 283 285 287 289 290 292 293 295 296 297 298 299 300 301 302 302 302 302 303 304 306 307 309 310 311 312 313 314 315 315 316 316 316 316 316 316 316 315 314 311 309 306 305 304 303 302 300 299 297 296 297 298 299 300 301 303 303 304 304 304 304 305 305 306 306 305 305 304 304
248 250 252 254 257 259 261 262 264 266 269 271 274 276 278 281 283 285 287 288 290 291 293 294 295 296 297 298 299 300 300 301 301 302 303 305 306 307 308 309 310 310 311 312 313 313 313 314 314 314 314 314 313 313 311 309 307 305 303 303 303 302 302 300 299 297 296 295 296 297 298 299 300 301 302 303 303 304 304 304 304 304 303 302 302
252 254 257 260 263 265 266 267 269 270 272 274 275 277 279 280 282 285 286 288 289 291 292 293 294 295 296 297 298 299 300 300 300 302 303 304 305 306 306 307 308 309 310 310 311 311 311 312 312 312 312 311 311 310 309 307 305 303 302 301 302 302 302 302 301 301 300 300 299 298 297 297 297 298 299 300 301 301 301 301 302 301 301 301 300
Height
10689 10690 10690 10691 10692 10693 10694 10694 10694 10694 10694 10694 10693 10692 10691 10690 10689 10688 10686 10684 10684 10683 10683 10682 10681 10680 10678 10675 10673 10671 10669 10667 10664 10662 10659 10656 10653 10650 10647 10644 10641 10638 10634 10630 10626 10623 10619 10616 10612 10608 10604 10601 10597 10593 10590 10586 10583 10579 10576 10572 10569 10568 10566 10563 10562 10557 10549 10545 10543 10539 10536 10535 10532 10530 10531 10530 10528 10528 10529 10530 10531 10533 10533 10534 10534
10684 10685 10685 10686 10687 10687 10688 10688 10688 10689 10688 10688 10687 10686 10685 10684 10683 10681 10680 10678 10678 10677 10677 10676 10675 10673 10671 10669 10666 10664 10662 10660 10658 10655 10652 10649 10646 10643 10640 10637 10634 10630 10627 10623 10619 10615 10611 10608 10604 10600 10597 10593 10589 10585 10581 10577 10574 10570 10566 10562 10559 10556 10554 10552 10550 10549 10543 10535 10531 10529 10525 10523 10520 10517 10517 10518 10516 10515 10516 10517 10518 10520 10521 10522 10523
10679 10680 10680 10681 10681 10682 10682 10682 10683 10683 10682 10682 10681 10680 10679 10678 10677 10675 10674 10673 10672 10672 10671 10670 10668 10666 10664 10662 10660 10658 10656 10653 10651 10648 10644 10641 10638 10635 10632 10629 10626 10623 10619 10616 10612 10608 10604 10600 10596 10592 10589 10585 10581 10577 10572 10568 10564 10560 10555 10551 10548 10544 10541 10540 10537 10536 10534 10528 10521 10518 10514 10510 10507 10505 10504 10504 10503 10503 10503 10503 10504 10506 10508 10509 10511
10674 10675 10676 10676 10676 10677 10677 10677 10677 10677 10676 10676 10675 10674 10673 10672 10670 10669 10668 10667 10666 10665 10664 10663 10662 10660 10658 10656 10653 10651 10648 10646 10643 10640 10637 10634 10631 10628 10625 10622 10619 10615 10612 10608 10604 10600 10596 10592 10588 10584 10580 10576 10572 10567 10563 10558 10554 10549 10545 10540 10537 10534 10529 10527 10525 10522 10520 10516 10510 10504 10501 10498 10494 10491 10491 10491 10489 10488 10489 10490 10490 10491 10494 10496 10498
10670 10670 10671 10671 10671 10671 10671 10671 10671 10671 10670 10670 10669 10668 10667 10666 10665 10663 10662 10661 10660 10659 10658 10657 10655 10653 10651 10648 10646 10643 10641 10638 10635 10632 10630 10627 10624 10621 10618 10615 10611 10608 10604 10601 10597 10592 10588 10584 10579 10575 10571 10566 10562 10558 10553 10548 10543 10538 10535 10531 10526 10523 10519 10515 10511 10508 10505 10502 10497 10491 10487 10485 10482 10478 10477 10477 10477 10474 10474 10476 10477 10478 10479 10482 10484
10665 10665 10666 10666 10666 10665 10665 10665 10665 10665 10664 10664 10663 10661 10660 10659 10658 10657 10656 10655 10654 10653 10652 10650 10648 10646 10644 10641 10639 10637 10634 10632 10629 10626 10623 10620 10617 10614 10611 10607 10604 10601 10597 10593 10589 10584 10580 10575 10570 10566 10561 10556 10552 10548 10543 10538 10534 10529 10525 10520 10516 10511 10507 10502 10498 10494 10490 10486 10483 10479 10474 10471 10470 10467 10463 10463 10464 10463 10461 10461 10462 10463 10466 10468 10469
10660 10661 10661 10661 10661 10661 10660 10660 10660 10659 10658 10657 10656 10655 10653 10652 10651 10651 10650 10648 10647 10646 10644 10643 10641 10639 10637 10634 10632 10630 10628 10625 10622 10620 10617 10614 10611 10607 10604 10600 10597 10593 10589 10585 10581 10576 10572 10567 10562 10557 10553 10548 10542 10537 10533 10528 10523 10519 10514 10509 10504 10499 10494 10489 10485 10481 10477 10473 10470 10466 10462 10458 10456 10455 10452 10450 10450 10450 10450 10449 10447 10446 10450 10456 10456
10656 10657 10657 10657 10657 10656 10656 10655 10655 10653 10652 10651 10649 10648 10647 10646 10645 10645 10644 10642 10641 10639 10638 10636 10634 10633 10630 10628 10626 10624 10621 10619 10616 10613 10610 10607 10604 10600 10597 10593 10589 10585 10582 10577 10573 10569 10564 10559 10554 10549 10544 10539 10534 10528 10523 10518 10513 10508 10503 10498 10493 10488 10482 10478 10473 10468 10465 10461 10457 10453 10449 10444 10441 10440 10439 10437 10436 10435 10436 10438 10437 10431 10432 10439 10442
10652 10652 10652 10652 10652 10651 10651 10650 10649 10648 10646 10645 10643 10642 10641 10640 10640 10639 10638 10637 10635 10634 10632 10631 10629 10627 10625 10622 10620 10618 10615 10613 10610 10607 10604 10601 10597 10593 10590 10586 10582 10578 10573 10569 10565 10560 10556 10550 10545 10540 10535 10530 10525 10519 10514 10509 10504 10499 10494 10489 10483 10477 10472 10467 10463 10458 10453 10449 10446 10442 10437 10431 10427 10424 10423 10421 10421 10420 10419 10422 10425 10422 10418 10420 10423
10647 10648 10647 10647 10647 10646 10646 10645 10643 10642 10640 10639 10638 10637 10636 10635 10635 10634 10632 10631 10630 10628 10627 10625 10623 10621 10619 10616 10614 10611 10609 10606 10604 10601 10597 10594 10590 10586 10582 10578 10574 10570 10565 10561 10556 10551 10545 10540 10534 10529 10524 10519 10514 10509 10504 10499 10494 10489 10484 10479 10473 10468 10462 10457 10452 10448 10443 10438 10434 10430 10425 10419 10414 10410 10408 10405 10403 10403 10403 10405 10408 10408 10406 10406 10405
10643 10643 10642 10642 10641 10641 10640 10639 10638 10636 10635 10634 10633 10631 10631 10630 10629 10628 10627 10626 10624 10623 10621 10619 10618 10615 10613 10611 10608 10605 10603 10600 10597 10594 10590 10586 10583 10579 10575 10570 10566 10561 10556 10551 10546 10540 10535 10529 10523 10518 10513 10508 10504 10498 10493 10487 10481 10476 10471 10466 10462 10457 10453 10447 10442 10437 10432 10426 10421 10417 10413 10407 10402 10398 10395 10392 10388 10387 10387 10388 10390 10392 10392 10393 10391
10637 10637 10637 10636 10636 10636 10635 10634 10633 10631 10629 10629 10627 10626 10625 10625 10624 10623 10622 10620 10619 10617 10616 10614 10612 10610 10607 10605 10602 10599 10596 10593 10590 10587 10583 10579 10575 10571 10566 10562 10557 10553 10548 10542 10536 10531 10525 10519 10514 10509 10503 10498 10493 10488 10482 10476 10470 10464 10459 10454 10449 10445 10440 10436 10431 10426 10420 10415 10409 10404 10400 10395 10390 10387 10384 10380 10376 10372 10372 10373 10375 10377 10376 10377 10379
10632 10632 10631 10632 10632 10631 10630 10629 10628 10626 10624 10623 10622 10621 10620 10620 10619 10618 10616 10615 10613 10612 10610 10608 10606 10604 10601 10598 10595 10592 10589 10586 10583 10579 10575 10571 10567 10563 10558 10554 10549 10544 10539 10534 10528 10523 10517 10511 10506 10500 10494 10489 10483 10477 10471 10465 10460 10454 10448 10443 10438 10432 10427 10422 10418 10413 10408 10404 10399 10394 10390 10385 10380 10376 10372 10369 10365 10361 10360 10360 10360 10363 10363 10363 10367
10627 10627 10627 10627 10627 10627 10626 10625 10622 10620 10618 10617 10617 10616 10615 10615 10614 10613 10611 10610 10608 10606 10604 10602 10600 10598 10595 10592 10589 10586 10583 10579 10575 10571 10567 10563 10559 10555 10550 10545 10541 10536 10531 10526 10520 10514 10509 10503 10498 10492 10486 10480 10473 10467 10461 10455 10450 10444 10438 10433 10427 10421 10416 10410 10405 10400 10395 10391 10387 10383 10380 10376 10371 10366 10362 10359 10356 10352 10351 10350 10348 10349 10351 10352 10356
10622 10623 10623 10622 10622 10622 10621 10619 10616 10613 10611 10611 10611 10611 10610 10609 10608 10607 10605 10604 10602 10600 10598 10596 10594 10591 10588 10586 10583 10579 10576 10572 10568 10563 10559 10556 10551 10547 10543 10538 10533 10528 10523 10518 10512 10507 10501 10495 10490 10484 10478 10471 10465 10459 10452 10446 10441 10436 10430 10424 10417 10411 10406 10400 10395 10391 10386 10382 10378 10373 10370 10367 10363 10359 10354 10350 10347 10343 10342 10341 10339 10339 10339 10341 10345
10619 10620 10619 10618 10617 10617 10616 10614 10609 10605 10604 10605 10606 10605 10604 10604 10603 10601 10600 10598 10596 10594 10592 10590 10588 10585 10582 10580 10576 10573 10569 10565 10561 10557 10552 10548 10544 10540 10536 10531 10526 10521 10515 10510 10504 10499 10494 10488 10482 10476 10469 10463 10457 10451 10445 10439 10433 10427 10421 10415 10408 10402 10396 10390 10385 10382 10378 10375 10370 10365 10361 10358 10354 10351 10347 10342 10338 10335 10333 10332 10332 10331 10330 10331 10334
10616 10616 10614 10612 10612 10612 10611 10607 10602 10599 10600 10600 10600 10600 10599 10598 10597 10595 10594 10592 10590 10588 10586 10584 10581 10579 10576 10573 10570 10566 10563 10558 10554 10550 10546 10542 10537 10533 10528 10523 10518 10513 10507 10502 10497 10491 10486 10480 10475 10468 10462 10456 10450 10444 10438 10432 10425 10419 10412 10406 10400 10393 10387 10381 10375 10371 10368 10365 10362 10357 10352 10349 10346 10343 10339 10335 10331 10328 10325 10324 10324 10324 10323 10323 10325
10613 10613 10609 10607 10608 10607 10604 10600 10596 10595 10596 10596 10595 10594 10593 10593 10592 10590 10588 10586 10584 10582 10580 10578 10575 10573 10570 10567 10564 10560 10556 10552 10548 10544 10539 10535 10530 10526 10521 10516 10511 10505 10500 10495 10489 10484 10479 10473 10467 10462 10455 10449 10444 10438 10432 10425 10418 10412 10405 10399 10393 10387 10381 10374 10368 10362 10358 10355 10353 10349 10344 10341 10338 10335 10332 10328 10326 10323 10319 10317 10317 10317 10317 10317 10318
10607 10608 10605 10603 10602 10600 10596 10594 10592 10592 10592 10591 10590 10589 10588 10587 10586 10584 10583 10581 10578 10576 10574 10571 10569 10566 10564 10561 10557 10553 10549 10545 10541 10537 10533 10528 10524 10519 10514 10509 10504 10499 10493 10488 10483 10477 10472 10467 10461 10455 10449 10443 10437 10431 10425 10418 10412 10405 10399 10392 10387 10382 10376 10370 10364 10358 10353 10349 10346 10343 10339 10335 10332 10329 10326 10323 10320 10317 10314 10312 10311 10310 10311 10312 10313
10600 10602 10599 10596 10594 10593 10591 10590 10589 10588 10586 10585 10585 10584 10583 10582 10580 10578 10576 10574 10572 10570 10567 10565 10563 10560 10557 10554 10550 10546 10542 10538 10534 10530 10526 10522 10517 10512 10507 10502 10497 10492 10487 10482 10477 10471 10466 10460 10454 10448 10442 10436 10431 10424 10418 10411 10405 10399 10393 10387 10381 10376 10371 10366 10361 10355 10350 10346 10342 10339 10335 10332 10328 10324 10320 10318 10315 10312 10310 10308 10306 10305 10306 10307 10308
10593 10595 10593 10589 10588 10588 10587 10585 10584 10582 10581 10580 10579 10578 10577 10576 10574 10572 10570 10568 10566 10564 10561 10559 10556 10553 10550 10547 10543 10539 10535 10531 10527 10523 10519 10515 10510 10505 10500 10495 10491 10486 10481 10476 10471 10465 10459 10453 10447 10441 10436 10429 10423 10417 10411 10405 10399 10393 10387 10382 10377 10372 10367 10362 10357 10351 10346 10341 10338 10334 10330 10327 10324 10320 10316 10313 10310 10308 10306 10304 10303 10301 10302 10303 10304
10585 10587 10586 10584 10584 10583 10582 10580 10579 10577 10575 10574 10573 10572 10571 10569 10568 10566 10564 10562 10560 10557 10555 10552 10550 10547 10543 10540 10536 10532 10528 10524 10521 10516 10512 10508 10503 10498 10494 10489 10484 10480 10475 10470 10464 10458 10453 10447 10441 10435 10429 10423 10416 10410 10404 10398 10392 10387 10381 10376 10372 10367 10362 10357 10353 10348 10343 10338 10334 10330 10326 10322 10319 10316 10312 10310 10307 10304 10303 10301 10300 10299 10299 10299 10300
10578 10579 10579 10579 10578 10577 10576 10575 10573 10572 10570 10569 10568 10566 10565 10563 10562 10560 10558 10556 10553 10551 10549 10546 10543 10540 10537 10533 10529 10526 10522 10518 10514 10510 10506 10501 10497 10492 10487 10483 10478 10473 10468 10463 10458 10452 10447 10441 10435 10429 10423 10416 10410 10403 10397 10392 10386 10381 10376 10371 10367 10362 10357 10353 10349 10345 10340 10335 10331 10327 10323 10319 10316 10313 10309 10306 10304 10302 10300 10299 10297 10296 10296 10297 10297
10572 10572 10573 10572 10571 10571 10570 10569 10568 10566 10565 10563 10562 10561 10559 10557 10556 10553 10551 10549 10547 10544 10542 10540 10537 10534 10530 10527 10523 10519 10515 10512 10508 10504 10500 10495 10490 10486 10481 10477 10472 10467 10462 10457 10452 10447 10441 10435 10429 10423 10416 10410 10404 10398 10392 10387 10382 10376 10371 10366 10362 10358 10354 10350 10346 10342 10337 10332 10328 10324 10321 10317 10313 10310 10307 10304 10301 10299 10298 10296 10295 10295 10294 10295 10295
10565 10566 10565 10565 10565 10564 10563 10562 10561 10560 10559 10557 10556 10554 10553 10551 10549 10547 10545 10543 10540 10538 10536 10533 10531 10528 10524 10521 10517 10513 10510 10506 10502 10498 10493 10489 10485 10480 10476 10471 10466 10461 10457 10452 10447 10441 10435 10429 10423 10416 10410 10404 10398 10393 10388 10383 10377 10372 10367 10363 10358 10354 10350 10347 10343 10339 10335 10331 10326 10322 10319 10315 10311 10308 10305 10302 10300 10298 10296 10295 10294 10293 10293 10293 10294
10558 10558 10558 10558 10558 10557 10556 10556 10555 10553 10552 10551 10550 10548 10546 10544 10542 10540 10538 10536 10534 10532 10530 10527 10524 10521 10518 10515 10511 10507 10504 10500 10496 10492 10487 10483 10479 10474 10470 10465 10461 10456 10452 10447 10441 10435 10429 10423 10417 10411 10404 10398 10393 10388 10383 10378 10374 10369 10365 10360 10356 10352 10348 10344 10340 10336 10333 10329 10326 10321 10317 10314 10310 10306 10303 10301 10298 10296 10294 10293 10293 10293 10293 10293 10293
10550 10550 10550 10551 10550 10550 10549 10548 10548 10547 10546 10545 10543 10541 10539 10537 10536 10534 10532 10530 10528 10525 10523 10521 10518 10515 10512 10509 10505 10502 10498 10494 10490 10486 10482 10477 10473 10469 10464 10460 10455 10451 10447 10442 10436 10430 10424 10418 10412 10406 10400 10394 10388 10383 10378 10373 10369 10366 10362 10358 10354 10350 10346 10343 10339 10335 10332 10328 10324 10321 10316 10312 10308 10305 10302 10299 10297 10295 10293 10292 10292 10292 10292 10292 10292
10543 10543 10544 10544 10544 10543 10542 10541 10541 10540 10539 10538 10536 10534 10532 10531 10529 10528 10526 10524 10521 10519 10517 10514 10512 10509 10506 10503 10499 10495 10492 10488 10484 10480 10476 10472 10468 10464 10459 10455 10451 10446 10442 10437 10431 10425 10419 10413 10407 10401 10395 10390 10385 10380 10375 10370 10365 10361 10358 10355 10352 10348 10344 10341 10337 10333 10329 10325 10322 10318 10314 10311 10307 10303 10301 10298 10296 10294 10292 10291 10291 10291 10291 10292 10292
10536 10536 10537 10537 10536 10535 10535 10535 10534 10534 10532 10531 10529 10527 10526 10525 10523 10521 10519 10517 10515 10512 10510 10508 10505 10503 10500 10496 10493 10489 10486 10482 10478 10474 10470 10466 10462 10458 10454 10450 10446 10442 10437 10432 10426 10420 10414 10408 10402 10396 10390 10385 10380 10376 10371 10367 10362 10357 10353 10351 10348 10344 10341 10337 10334 10330 10326 10323 10319 10315 10312 10310 10307 10303 10300 10297 10295 10294 10292 10291 10290 10290 10291 10291 10292
10528 10529 10530 10530 10529 10528 10528 10528 10528 10526 10525 10523 10522 10521 10519 10518 10516 10515 10513 10511 10508 10506 10504 10502 10499 10496 10493 10490 10486 10483 10480 10476 10472 10468 10465 10461 10457 10453 10449 10445 10441 10437 10432 10427 10421 10415 10409 10403 10397 10390 10385 10380 10375 10371 10367 10363 10359 10354 10350 10346 10344 10341 10338 10335 10332 10329 10325 10321 10318 10314 10311 10309 10306 10303 10299 10296 10294 10293 10291 10290 10289 10289 10290 10290 10291
10521 10522 10522 10522 10521 10521 10521 10521 10520 10519 10517 10516 10515 10514 10513 10511 10510 10508 10507 10504 10502 10500 10497 10495 10493 10490 10487 10484 10480 10477 10474 10470 10467 10463 10460 10456 10452 10448 10444 10440 10436 10432 10427 10422 10416 10410 10404 10398 10391 10386 10380 10375 10370 10366 10362 10359 10355 10352 10348 10344 10341 10338 10336 10332 10329 10326 10323 10320 10317 10314 10311 10307 10305 10302 10299 10296 10293 10292 10290 10289 10289 10288 10289 10289 10290
10514 10515 10515 10514 10513 10514 10515 10514 10512 10511 10510 10510 10509 10508 10506 10505 10503 10502 10500 10498 10495 10493 10491 10488 10486 10483 10480 10477 10474 10471 10468 10465 10461 10458 10454 10451 10447 10443 10439 10435 10431 10427 10422 10416 10411 10405 10399 10393 10387 10381 10376 10371 10367 10363 10358 10355 10352 10349 10345 10342 10339 10336 10333 10330 10327 10324 10321 10318 10315 10312 10309 10306 10303 10301 10299 10296 10293 10291 10289 10289 10288 10287 10288 10288 10289
10507 10508 10507 10506 10507 10508 10508 10506 10505 10504 10504 10503 10502 10501 10499 10498 10496 10495 10493 10491 10489 10487 10484 10482 10479 10477 10474 10471 10469 10466 10462 10459 10456 10452 10449 10446 10442 10438 10434 10430 10426 10422 10417 10412 10406 10401 10395 10389 10383 10377 10373 10368 10364 10359 10355 10352 10348 10345 10343 10340 10337 10334 10331 10328 10325 10323 10320 10317 10314 10311 10308 10305 10302 10300 10298 10296 10293 10291 10289 10288 10287 10286 10286 10287 10287
10501 10502 10500 10500 10501 10502 10501 10499 10498 10498 10497 10496 10495 10494 10492 10491 10489 10488 10486 10485 10482 10480 10478 10475 10473 10470 10468 10465 10463 10460 10457 10453 10450 10447 10444 10440 10437 10433 10429 10425 10421 10416 10412 10407 10402 10397 10391 10386 10380 10374 10370 10365 10361 10357 10353 10349 10346 10343 10340 10338 10335 10332 10330 10327 10324 10321 10318 10315 10313 10310 10307 10304 10301 10298 10296 10294 10293 10291 10288 10287 10286 10285 10285 10285 10285
10495 10495 10493 10493 10494 10495 10493 10492 10492 10491 10490 10489 10488 10487 10486 10484 10482 10481 10480 10478 10476 10473 10471 10469 10467 10465 10463 10460 10457 10454 10451 10448 10445 10442 10438 10435 10431 10428 10424 10419 10416 10411 10407 10402 10398 10393 10388 10383 10377 10372 10367 10362 10358 10354 10350 10346 10343 10340 10337 10335 10332 10330 10327 10324 10322 10319 10316 10313 10310 10308 10305 10303 10301 10298 10295 10293 10291 10290 10288 10286 10285 10284 10283 10283 10283
10489 10488 10486 10486 10488 10488 10486 10486 10485 10485 10484 10483 10482 10480 10479 10477 10476 10475 10473 10471 10469 10467 10465 10463 10462 10460 10457 10455 10452 10448 10445 10442 10439 10436 10433 10429 10426 10422 10418 10414 10411 10407 10403 10398 10394 10389 10384 10379 10374 10369 10363 10359 10355 10352 10348 10344 10341 10337 10334 10331 10329 10326 10324 10322 10319 10317 10314 10311 10309 10306 10303 10301 10300 10298 10295 10292 10290 10288 10287 10285 10284 10283 10282 10281 10281
10482 10480 10479 10480 10481 10481 10480 10479 10479 10478 10477 10476 10475 10473 10472 10471 10469 10467 10466 10464 10463 10461 10459 10458 10456 10454 10452 10449 10446 10443 10440 10437 10434 10430 10427 10424 10420 10416 10413 10409 10406 10402 10398 10394 10390 10385 10380 10375 10370 10365 10361 10356 10352 10349 10345 10342 10339 10336 10332 10329 10326 10324 10321 10319 10317 10314 10311 10309 10307 10304 10302 10299 10297 10295 10294 10292 10289 10287 10285 10284 10282 10281 10280 10280 10279
10474 10472 10472 10472 10474 10474 10473 10473 10472 10471 10470 10469 10468 10467 10465 10464 10462 10461 10459 10458 10457 10455 10454 10453 10451 10448 10446 10443 10440 10437 10434 10431 10428 10425 10421 10418 10414 10411 10408 10404 10401 10397 10393 10389 10385 10381 10376 10371 10366 10361 10357 10353 10349 10346 10342 10339 10336 10333 10330 10327 10324 10321 10319 10316 10314 10312 10309 10307 10305 10303 10300 10298 10295 10293 10291 10290 10288 10286 10284 10282 10280 10279 10279 10278 10277
10468 10466 10465 10466 10467 10467 10466 10466 10465 10464 10463 10462 10461 10460 10459 10457 10456 10455 10454 10453 10451 10450 10449 10447 10445 10443 10440 10437 10434 10431 10428 10425 10422 10419 10415 10412 10409 10406 10402 10399 10396 10392 10388 10384 10380 10376 10372 10368 10363 10358 10353 10349 10346 10342 10339 10336 10333 10330 10327 10325 10322 10319 10317 10314 10312 10309 10307 10305 10303 10300 10298 10296 10294 10291 10289 10287 10286 10284 10282 10281 10279 10277 10276 10275 10275
10463 10461 10460 10460 10461 10460 10460 10459 10459 10458 10457 10456 10455 10454 10453 10451 10450 10449 10448 10447 10446 10445 10443 10441 10439 10436 10434 10431 10428 10425 10422 10419 10416 10413 10410 10407 10403 10400 10397 10394 10390 10386 10382 10378 10374 10370 10367 10363 10359 10354 10349 10345 10341 10338 10335 10332 10329 10327 10324 10322 10319 10316 10314 10311 10309 10306 10304 10302 10300 10297 10295 10293 10291 10289 10287 10285 10283 10282 10280 10279 10277 10275 10274 10272 10271
10458 10456 10455 10455 10455 10454 10454 10453 10452 10451 10451 10450 10449 10448 10447 10446 10445 10444 10443 10442 10440 10439 10437 10435 10433 10430 10428 10425 10422 10419 10416 10413 10411 10407 10404 10401 10398 10395 10391 10388 10384 10381 10377 10373 10369 10365 10362 10358 10354 10350 10346 10342 10337 10334 10331 10328 10325 10323 10320 10318 10316 10313 10311 10308 10306 10303 10301 10299 10297 10294 10292 10290 10288 10286 10285 10283 10281 10279 10277 10276 10274 10273 10272 10270 10269
10452 10450 10449 10449 10449 10449 10448 10448 10447 10446 10445 10444 10443 10442 10441 10440 10439 10438 10437 10436 10434 10433 10430 10428 10426 10424 10421 10418 10415 10413 10410 10408 10405 10402 10398 10395 10392 10389 10385 10382 10379 10376 10372 10368 10364 10359 10355 10352 10349 10345 10342 10338 10334 10331 10327 10324 10321 10319 10316 10314 10312 10310 10308 10306 10303 10300 10298 10296 10294 10291 10289 10287 10285 10283 10281 10280 10278 10276 10275 10273 10271 10270 10269 10267 10266
10447 10445 10444 10444 10443 10443 10442 10442 10441 10440 10439 10438 10437 10436 10435 10434 10433 10432 10431 10429 10428 10426 10424 10421 10419 10417 10414 10411 10409 10407 10404 10402 10399 10396 10392 10389 10386 10382 10379 10376 10373 10369 10366 10362 10358 10353 10349 10345 10342 10339 10337 10334 10331 10327 10324 10320 10317 10315 10312 10310 10307 10305 10303 10301 10299 10297 10294 10292 10290 10288 10286 10284 10282 10280 10278 10276 10275 10273 10272 10270 10268 10267 10265 10264 10262
10441 10439 10438 10438 10437 10437 10436 10436 10435 10434 10433 10431 10430 10429 10428 10427 10426 10426 10424 10423 10421 10419 10417 10414 10412 10410 10408 10406 10404 10401 10398 10395 10393 10390 10387 10384 10380 10377 10373 10370 10366 10362 10359 10355 10351 10347 10343 10339 10336 10333 10331 10329 10326 10323 10320 10316 10313 10310 10307 10305 10303 10301 10298 10296 10295 10293 10291 10289 10287 10284 10282 10280 10278 10276 10274 10273 10271 10269 10268 10267 10265 10264 10262 10260 10258
10436 10434 10432 10432 10432 10431 10430 10430 10428 10427 10426 10424 10423 10421 10420 10420 10419 10418 10417 10415 10413 10411 10409 10407 10405 10403 10402 10400 10398 10396 10393 10389 10386 10383 10380 10377 10374 10371 10367 10363 10359 10355 10352 10349 10345 10341 10337 10334 10331 10328 10325 10322 10320 10317 10314 10312 10309 10306 10303 10300 10297 10295 10293 10291 10289 10288 10286 10284 10282 10280 10278 10276 10275 10273 10271 10269 10267 10265 10264 10262 10261 10259 10258 10257 10255
10430 10427 10425 10426 10426 10426 10425 10424 10423 10421 10420 10418 10416 10414 10413 10411 10410 10409 10408 10407 10406 10404 10402 10400 10398 10396 10394 10392 10390 10388 10386 10383 10380 10376 10373 10370 10367 10364 10361 10357 10353 10349 10346 10343 10340 10336 10333 10329 10325 10321 10318 10315 10313 10310 10307 10305 10303 10301 10299 10296 10293 10290 10287 10285 10283 10282 10280 10278 10276 10275 10273 10272 10270 10268 10266 10264 10263 10261 10259 10257 10256 10254 10252 10251 10250
10420 10419 10419 10419 10419 10419 10418 10418 10417 10416 10413 10412 10410 10409 10407 10405 10403 10402 10401 10399 10398 10397 10396 10394 10392 10390 10387 10385 10383 10381 10378 10375 10372 10369 10366 10363 10360 10357 10354 10351 10347 10343 10340 10337 10334 10330 10326 10322 10318 10314 10311 10307 10305 10302 10299 10297 10295 10294 10293 10291 10289 10286 10283 10280 10278 10276 10274 10272 10270 10268 10266 10265 10264 10262 10261 10259 10257 10255 10254 10253 10251 10249 10247 10245 10244
10413 10413 10413 10413 10412 10412 10412 10411 10410 10409 10407 10406 10405 10404 10402 10400 10398 10397 10395 10394 10392 10391 10390 10388 10386 10383 10381 10378 10376 10373 10371 10368 10365 10361 10358 10356 10353 10350 10347 10344 10340 10337 10333 10329 10325 10322 10319 10315 10311 10308 10304 10301 10298 10295 10292 10288 10286 10284 10284 10283 10283 10281 10280 10277 10274 10271 10269 10266 10263 10261 10259 10257 10256 10255 10254 10252 10250 10249 10247 10246 10245 10243 10241 10240 10238
10406 10406 10406 10406 10405 10405 10405 10404 10403 10402 10401 10399 10398 10397 10396 10394 10393 10391 10390 10388 10387 10385 10384 10381 10379 10376 10374 10371 10369 10367 10364 10360 10357 10353 10350 10348 10345 10343 10340 10336 10333 10329 10325 10322 10318 10314 10311 10308 10305 10301 10298 10295 10292 10289 10286 10281 10277 10275 10274 10274 10273 10273 10272 10271 10269 10267 10265 10262 10258 10255 10253 10250 10248 10247 10245 10244 10243 10242 10240 10239 10237 10236 10234 10233 10231
10399 10399 10399 10398 10398 10398 10397 10397 10396 10395 10394 10393 10392 10390 10389 10388 10386 10385 10383 10382 10380 10379 10376 10373 10370 10368 10366 10364 10362 10359 10356 10352 10348 10345 10342 10339 10336 10333 10331 10328 10325 10322 10318 10315 10311 10307 10304 10301 10298 10295 10291 10288 10286 10283 10279 10275 10271 10267 10266 10265 10264 10263 10262 10261 10260 10259 10258 10256 10254 10250 10247 10244 10242 10239 10237 10236 10235 10233 10232 10230 10229 10227 10226 10224 10223
10391 10392 10392 10392 10392 10391 10391 10391 10390 10389 10387 10386 10385 10384 10383 10381 10380 10378 10377 10375 10373 10371 10368 10365 10362 10360 10358 10356 10354 10351 10347 10343 10340 10337 10333 10330 10327 10325 10322 10320 10317 10314 10311 10308 10303 10300 10296 10293 10291 10287 10284 10281 10278 10275 10272 10269 10265 10261 10258 10256 10255 10253 10252 10250 10249 10248 10247 10247 10245 10243 10240 10238 10235 10233 10231 10229 10227 10226 10224 10222 10220 10218 10216 10215 10213